This is the latest recevied weather packets stored in our database for station/object DC5DM-13. If no packets are shown the sender has not sent any weather packets the latest 10 day(s).
| Time | Temp. | Humidity | Pressure | Rain* | Wind** | Luminosity | Snow |
|---|---|---|---|---|---|---|---|
| 1777575625 | 12.78° C | 43% | 1027.1 hPa | 0 mm | - | - | - |
| 1777575051 | 13.33° C | 41% | 1027 hPa | 0 mm | - | - | - |
| 1777574480 | 13.89° C | 38% | 1026.9 hPa | 0 mm | - | - | - |
| 1777573850 | 14.44° C | 37% | 1026.8 hPa | 0 mm | - | - | - |
| 1777573274 | 15° C | 35% | 1026.7 hPa | 0 mm | - | - | - |
| 1777572638 | 15.56° C | 34% | 1026.7 hPa | 0 mm | - | - | - |
| 1777572061 | 16.11° C | 33% | 1026.8 hPa | 0 mm | - | - | - |
| 1777571429 | 16.67° C | 32% | 1026.7 hPa | 0 mm | - | - | - |
| 1777570861 | 17.22° C | 31% | 1026.8 hPa | 0 mm | - | - | - |
| 1777570229 | 17.78° C | 31% | 1026.7 hPa | 0 mm | - | - | - |
| 1777569661 | 17.78° C | 30% | 1026.7 hPa | 0 mm | - | - | - |
| 1777569029 | 17.78° C | 30% | 1026.6 hPa | 0 mm | - | - | - |
| 1777568461 | 17.78° C | 30% | 1026.7 hPa | 0 mm | - | - | - |
| 1777567829 | 18.33° C | 29% | 1026.7 hPa | 0 mm | - | - | - |
| 1777567260 | 17.78° C | 29% | 1026.7 hPa | 0 mm | - | - | - |
| 1777566622 | 18.33° C | 29% | 1026.8 hPa | 0 mm | - | - | - |
| 1777566058 | 18.89° C | 29% | 1026.8 hPa | 0 mm | - | - | - |
| 1777565421 | 18.89° C | 29% | 1026.9 hPa | 0 mm | - | - | - |
| 1777564852 | 18.89° C | 28% | 1026.9 hPa | 0 mm | - | - | - |
| 1777564221 | 18.89° C | 28% | 1026.9 hPa | 0 mm | - | - | - |
| 1777563653 | 18.89° C | 28% | 1027 hPa | 0 mm | - | - | - |
| 1777563022 | 18.33° C | 29% | 1027 hPa | 0 mm | - | - | - |
| 1777562454 | 18.89° C | 28% | 1027.1 hPa | 0 mm | - | - | - |
| 1777561821 | 18.89° C | 28% | 1026.8 hPa | 0 mm | - | - | - |
| 1777561258 | 18.89° C | 28% | 1027 hPa | 0 mm | - | - | - |
* Rain latest hour (hover to see other rain measurements)
** Current wind speed in m/s (hover to see current wind gust speed)